Time,TemperatureF,DewpointF,PressureIn,WindDirection,WindDirectionDegrees,WindSpeedMPH,WindSpeedGustMPH,Humidity,HourlyPrecipIn,Conditions,Clouds,dailyrainin,SoftwareType,DateUTC
2013-09-20 00:06:00,53.4,51.0,30.06,West,275,0.0,-999.0,90,-99.99,,,0.00,weatherlink.com 1.10,2013-09-20 04:06:00,
2013-09-20 00:21:00,53.0,50.0,30.06,West,275,0.0,-999.0,90,-99.99,,,0.00,weatherlink.com 1.10,2013-09-20 04:21:00,
2013-09-20 00:36:00,52.6,50.0,30.06,West,275,0.0,-999.0,90,-99.99,,,0.00,weatherlink.com 1.10,2013-09-20 04:36:00,
2013-09-20 00:51:00,52.2,49.0,30.06,West,275,0.0,-999.0,90,-99.99,,,0.00,weatherlink.com 1.10,2013-09-20 04:51:00,
2013-09-20 01:06:00,51.8,49.0,30.07,West,275,0.0,-999.0,91,-99.99,,,0.00,weatherlink.com 1.10,2013-09-20 05:06:00,
2013-09-20 01:21:00,51.5,49.0,30.07,West,275,0.0,-999.0,91,-99.99,,,0.00,weatherlink.com 1.10,2013-09-20 05:21:00,
2013-09-20 01:36:00,51.2,49.0,30.07,West,275,0.0,-999.0,91,-99.99,,,0.00,weatherlink.com 1.10,2013-09-20 05:36:00,
2013-09-20 01:51:00,50.9,48.0,30.08,West,275,0.0,-999.0,91,-99.99,,,0.00,weatherlink.com 1.10,2013-09-20 05:51:00,
2013-09-20 02:06:00,50.5,48.0,30.07,West,275,0.0,-999.0,91,-99.99,,,0.00,weatherlink.com 1.10,2013-09-20 06:06:00,
2013-09-20 02:21:00,50.3,48.0,30.07,West,275,0.0,-999.0,92,-99.99,,,0.00,weatherlink.com 1.10,2013-09-20 06:21:00,
2013-09-20 02:36:00,50.1,48.0,30.07,West,275,0.0,-999.0,92,-99.99,,,0.00,weatherlink.com 1.10,2013-09-20 06:36:00,
2013-09-20 02:51:00,49.6,47.0,30.07,West,275,0.0,-999.0,92,-99.99,,,0.00,weatherlink.com 1.10,2013-09-20 06:51:00,
2013-09-20 03:06:00,49.4,47.0,30.07,West,275,0.0,-999.0,92,-99.99,,,0.00,weatherlink.com 1.10,2013-09-20 07:06:00,
2013-09-20 03:21:00,49.1,47.0,30.07,West,274,0.0,-999.0,92,-99.99,,,0.00,weatherlink.com 1.10,2013-09-20 07:21:00,
2013-09-20 03:36:00,48.8,47.0,30.07,West,274,0.0,-999.0,92,-99.99,,,0.00,weatherlink.com 1.10,2013-09-20 07:36:00,
2013-09-20 03:51:00,48.7,47.0,30.07,West,275,0.0,-999.0,92,-99.99,,,0.00,weatherlink.com 1.10,2013-09-20 07:51:00,
2013-09-20 04:06:00,48.5,46.0,30.08,West,275,0.0,-999.0,92,-99.99,,,0.00,weatherlink.com 1.10,2013-09-20 08:06:00,
2013-09-20 04:21:00,48.3,46.0,30.08,West,275,0.0,-999.0,92,-99.99,,,0.00,weatherlink.com 1.10,2013-09-20 08:21:00,
2013-09-20 04:36:00,48.0,46.0,30.08,West,275,0.0,-999.0,92,-99.99,,,0.00,weatherlink.com 1.10,2013-09-20 08:36:00,
2013-09-20 04:51:00,47.9,46.0,30.08,West,275,0.0,-999.0,92,-99.99,,,0.00,weatherlink.com 1.10,2013-09-20 08:51:00,
2013-09-20 05:06:00,47.7,46.0,30.08,West,274,0.0,-999.0,92,-99.99,,,0.00,weatherlink.com 1.10,2013-09-20 09:06:00,
2013-09-20 05:21:00,47.4,46.0,30.09,West,275,0.0,-999.0,93,-99.99,,,0.00,weatherlink.com 1.10,2013-09-20 09:21:00,
2013-09-20 05:36:00,47.3,45.0,30.08,West,274,0.0,-999.0,93,-99.99,,,0.00,weatherlink.com 1.10,2013-09-20 09:36:00,
2013-09-20 05:51:00,47.1,45.0,30.07,West,275,0.0,-999.0,92,-99.99,,,0.00,weatherlink.com 1.10,2013-09-20 09:51:00,
2013-09-20 06:06:00,47.0,45.0,30.07,West,275,0.0,-999.0,92,-99.99,,,0.00,weatherlink.com 1.10,2013-09-20 10:06:00,
2013-09-20 06:21:00,46.8,45.0,30.08,West,275,0.0,-999.0,93,-99.99,,,0.00,weatherlink.com 1.10,2013-09-20 10:21:00,
2013-09-20 06:36:00,46.7,45.0,30.08,West,274,0.0,-999.0,93,-99.99,,,0.00,weatherlink.com 1.10,2013-09-20 10:36:00,
2013-09-20 06:51:00,47.0,45.0,30.07,West,275,0.0,-999.0,93,-99.99,,,0.00,weatherlink.com 1.10,2013-09-20 10:51:00,
2013-09-20 07:06:00,48.1,47.0,30.07,East,98,0.0,-999.0,94,-99.99,,,0.00,weatherlink.com 1.10,2013-09-20 11:06:00,
2013-09-20 07:21:00,48.5,47.0,30.07,East,98,0.0,-999.0,94,-99.99,,,0.00,weatherlink.com 1.10,2013-09-20 11:21:00,
2013-09-20 07:36:00,48.8,47.0,30.07,East,98,0.0,-999.0,94,-99.99,,,0.00,weatherlink.com 1.10,2013-09-20 11:36:00,
2013-09-20 07:51:00,49.2,48.0,30.07,East,98,0.0,-999.0,94,-99.99,,,0.00,weatherlink.com 1.10,2013-09-20 11:51:00,
2013-09-20 08:06:00,49.7,48.0,30.06,East,98,0.0,-999.0,94,-99.99,,,0.00,weatherlink.com 1.10,2013-09-20 12:06:00,
2013-09-20 08:21:00,50.6,49.0,30.07,East,90,0.0,-999.0,95,-99.99,,,0.00,weatherlink.com 1.10,2013-09-20 12:21:00,
2013-09-20 08:36:00,51.7,50.0,30.07,ENE,63,4.0,-999.0,95,-99.99,,,0.00,weatherlink.com 1.10,2013-09-20 12:36:00,
2013-09-20 08:51:00,52.8,52.0,30.07,ENE,61,0.0,-999.0,95,-99.99,,,0.00,weatherlink.com 1.10,2013-09-20 12:51:00,
2013-09-20 09:06:00,54.0,53.0,30.07,ENE,59,0.0,-999.0,95,-99.99,,,0.00,weatherlink.com 1.10,2013-09-20 13:06:00,
2013-09-20 09:21:00,55.1,54.0,30.08,ENE,58,0.0,-999.0,95,-99.99,,,0.00,weatherlink.com 1.10,2013-09-20 13:21:00,
2013-09-20 09:37:00,56.5,55.0,30.07,ENE,59,0.0,-999.0,94,-99.99,,,0.00,weatherlink.com 1.10,2013-09-20 13:37:00,
2013-09-20 09:52:00,58.3,56.0,30.07,ENE,57,0.0,-999.0,92,-99.99,,,0.00,weatherlink.com 1.10,2013-09-20 13:52:00,
2013-09-20 10:07:00,60.4,57.0,30.06,ENE,58,0.0,-999.0,87,-99.99,,,0.00,weatherlink.com 1.10,2013-09-20 14:07:00,
2013-09-20 10:22:00,61.8,57.0,30.07,ENE,58,1.0,-999.0,85,-99.99,,,0.00,weatherlink.com 1.10,2013-09-20 14:22:00,
2013-09-20 10:25:00,62.2,57.3,30.07,ENE,58,0.0,0.0,84,0.00,,,0.00,Wunderground v.1.15,2013-09-20 14:25:00,
2013-09-20 10:35:00,63.2,57.9,30.06,NNW,347,1.0,1.0,83,0.00,,,0.00,Wunderground v.1.15,2013-09-20 14:35:00,
2013-09-20 10:36:00,63.5,58.0,30.06,NNW,347,0.0,-999.0,83,-99.99,,,0.00,weatherlink.com 1.10,2013-09-20 14:36:00,
2013-09-20 10:40:00,64.0,58.4,30.06,WNW,286,0.0,1.0,82,0.00,,,0.00,Wunderground v.1.15,2013-09-20 14:40:00,
2013-09-20 10:45:00,64.5,58.2,30.06,East,81,0.0,1.0,80,0.00,,,0.00,Wunderground v.1.15,2013-09-20 14:45:00,
2013-09-20 10:50:00,65.1,58.8,30.06,NNE,17,0.0,2.0,80,0.00,,,0.00,Wunderground v.1.15,2013-09-20 14:50:00,
2013-09-20 10:53:00,65.4,59.0,30.06,NNE,17,0.0,-999.0,80,-99.99,,,0.00,weatherlink.com 1.10,2013-09-20 14:53:00,
2013-09-20 11:00:00,66.1,59.7,30.05,NNW,345,1.0,1.0,80,0.00,,,0.00,Wunderground v.1.15,2013-09-20 15:00:00,
2013-09-20 11:07:00,67.2,60.0,30.05,SW,230,2.0,-999.0,78,-99.99,,,0.00,weatherlink.com 1.10,2013-09-20 15:07:00,
2013-09-20 11:15:00,68.4,60.5,30.05,SW,233,1.0,1.0,76,0.00,,,0.00,Wunderground v.1.15,2013-09-20 15:15:00,
2013-09-20 11:23:00,69.4,61.0,30.04,West,274,0.0,-999.0,74,-99.99,,,0.00,weatherlink.com 1.10,2013-09-20 15:23:00,
2013-09-20 11:30:00,70.1,60.7,30.04,SW,232,1.0,1.0,72,0.00,,,0.00,Wunderground v.1.15,2013-09-20 15:30:00,
2013-09-20 11:38:00,71.0,62.0,30.04,NW,323,3.0,-999.0,72,-99.99,,,0.00,weatherlink.com 1.10,2013-09-20 15:38:00,
2013-09-20 11:45:00,72.1,61.4,30.03,WSW,252,1.0,5.0,69,0.00,,,0.00,Wunderground v.1.15,2013-09-20 15:45:00,
2013-09-20 11:50:00,72.9,61.7,30.03,NNW,333,2.0,2.0,68,0.00,,,0.00,Wunderground v.1.15,2013-09-20 15:50:00,
2013-09-20 11:52:00,73.3,62.0,30.03,West,279,3.0,-999.0,67,-99.99,,,0.00,weatherlink.com 1.10,2013-09-20 15:52:00,
2013-09-20 12:00:00,74.6,61.6,30.03,WSW,253,2.0,2.0,64,0.00,,,0.00,Wunderground v.1.15,2013-09-20 16:00:00,
2013-09-20 12:05:00,75.2,61.7,30.03,NW,316,1.0,3.0,63,0.00,,,0.00,Wunderground v.1.15,2013-09-20 16:05:00,
2013-09-20 12:08:00,75.6,62.0,30.03,West,277,1.0,-999.0,63,-99.99,,,0.00,weatherlink.com 1.10,2013-09-20 16:08:00,
2013-09-20 12:15:00,76.4,61.5,30.02,West,274,1.0,4.0,60,0.00,,,0.00,Wunderground v.1.15,2013-09-20 16:15:00,
2013-09-20 12:20:00,76.3,61.4,30.02,SW,218,2.0,2.0,60,0.00,,,0.00,Wunderground v.1.15,2013-09-20 16:20:00,
2013-09-20 12:23:00,76.5,61.0,30.02,WNW,284,3.0,-999.0,60,-99.99,,,0.00,weatherlink.com 1.10,2013-09-20 16:23:00,
2013-09-20 12:30:00,76.8,61.4,30.02,WSW,257,2.0,4.0,59,0.00,,,0.00,Wunderground v.1.15,2013-09-20 16:30:00,
2013-09-20 12:35:00,76.3,60.9,30.02,WSW,243,2.0,4.0,59,0.00,,,0.00,Wunderground v.1.15,2013-09-20 16:35:00,
2013-09-20 12:39:00,76.6,61.0,30.02,West,271,2.0,-999.0,59,-99.99,,,0.00,weatherlink.com 1.10,2013-09-20 16:39:00,
2013-09-20 12:45:00,76.9,61.5,30.01,North,355,2.0,3.0,59,0.00,,,0.00,Wunderground v.1.15,2013-09-20 16:45:00,
2013-09-20 12:53:00,78.4,62.0,30.01,West,277,2.0,-999.0,57,-99.99,,,0.00,weatherlink.com 1.10,2013-09-20 16:53:00,
2013-09-20 13:00:00,78.7,61.7,30.01,WNW,282,2.0,3.0,56,0.00,,,0.00,Wunderground v.1.15,2013-09-20 17:00:00,
2013-09-20 13:10:00,79.6,61.0,30.01,South,190,1.0,-999.0,54,-99.99,,,0.00,weatherlink.com 1.10,2013-09-20 17:10:00,
2013-09-20 13:15:00,79.7,60.0,30.00,West,271,3.0,3.0,51,0.00,,,0.00,Wunderground v.1.15,2013-09-20 17:15:00,
2013-09-20 13:24:00,79.8,60.0,30.00,South,187,3.0,-999.0,51,-99.99,,,0.00,weatherlink.com 1.10,2013-09-20 17:24:00,
2013-09-20 13:30:00,79.3,60.7,30.00,WNW,285,2.0,2.0,53,0.00,,,0.00,Wunderground v.1.15,2013-09-20 17:30:00,
2013-09-20 13:35:00,79.7,62.1,29.99,NW,317,1.0,3.0,55,0.00,,,0.00,Wunderground v.1.15,2013-09-20 17:35:00,
2013-09-20 13:40:00,80.4,61.0,29.99,NW,305,4.0,-999.0,51,-99.99,,,0.00,weatherlink.com 1.10,2013-09-20 17:40:00,
2013-09-20 13:50:00,81.2,60.8,29.99,WSW,249,2.0,3.0,50,0.00,,,0.00,Wunderground v.1.15,2013-09-20 17:50:00,
2013-09-20 13:54:00,81.3,61.0,29.98,WNW,290,2.0,-999.0,50,-99.99,,,0.00,weatherlink.com 1.10,2013-09-20 17:54:00,
2013-09-20 13:55:00,81.4,61.0,29.99,South,169,2.0,4.0,50,0.00,,,0.00,Wunderground v.1.15,2013-09-20 17:55:00,
2013-09-20 14:05:00,80.9,60.5,29.99,South,178,3.0,4.0,50,0.00,,,0.00,Wunderground v.1.15,2013-09-20 18:05:00,
2013-09-20 14:10:00,81.0,61.0,29.98,NE,49,0.0,-999.0,51,-99.99,,,0.00,weatherlink.com 1.10,2013-09-20 18:10:00,
2013-09-20 14:20:00,81.7,60.1,29.98,SW,230,2.0,3.0,48,0.00,,,0.00,Wunderground v.1.15,2013-09-20 18:20:00,
2013-09-20 14:25:00,81.4,61.0,29.98,South,180,3.0,3.0,50,0.00,,,0.00,Wunderground v.1.15,2013-09-20 18:25:00,
2013-09-20 14:35:00,82.1,61.0,29.97,East,90,1.0,3.0,49,0.00,,,0.00,Wunderground v.1.15,2013-09-20 18:35:00,
2013-09-20 14:40:00,82.9,61.2,29.97,SSW,196,1.0,4.0,48,0.00,,,0.00,Wunderground v.1.15,2013-09-20 18:40:00,
2013-09-20 14:55:00,82.3,60.0,29.97,SSW,211,0.0,-999.0,47,-99.99,,,0.00,weatherlink.com 1.10,2013-09-20 18:55:00,
2013-09-20 15:10:00,83.0,60.0,29.96,WSW,250,6.0,-999.0,46,-99.99,,,0.00,weatherlink.com 1.10,2013-09-20 19:10:00,
2013-09-20 15:25:00,82.9,61.0,29.96,SSE,165,0.0,-999.0,48,-99.99,,,0.00,weatherlink.com 1.10,2013-09-20 19:25:00,
2013-09-20 15:40:00,83.4,60.0,29.95,South,180,0.0,-999.0,46,-99.99,,,0.00,weatherlink.com 1.10,2013-09-20 19:40:00,
2013-09-20 15:55:00,83.7,61.0,29.95,ENE,70,1.0,-999.0,46,-99.99,,,0.00,weatherlink.com 1.10,2013-09-20 19:55:00,
2013-09-20 16:10:00,84.5,61.0,29.94,SSW,208,0.0,-999.0,45,-99.99,,,0.00,weatherlink.com 1.10,2013-09-20 20:10:00,
2013-09-20 16:25:00,84.4,60.0,29.94,West,264,1.0,-999.0,44,-99.99,,,0.00,weatherlink.com 1.10,2013-09-20 20:25:00,
2013-09-20 16:40:00,83.5,60.0,29.94,West,281,3.0,-999.0,45,-99.99,,,0.00,weatherlink.com 1.10,2013-09-20 20:40:00,
2013-09-20 16:55:00,82.5,60.0,29.93,West,281,5.0,-999.0,46,-99.99,,,0.00,weatherlink.com 1.10,2013-09-20 20:55:00,
2013-09-20 17:10:00,82.7,61.0,29.93,South,171,0.0,-999.0,48,-99.99,,,0.00,weatherlink.com 1.10,2013-09-20 21:10:00,
2013-09-20 17:25:00,82.8,61.0,29.93,ENE,63,0.0,-999.0,47,-99.99,,,0.00,weatherlink.com 1.10,2013-09-20 21:25:00,
2013-09-20 17:40:00,81.9,60.0,29.93,ENE,78,0.0,-999.0,48,-99.99,,,0.00,weatherlink.com 1.10,2013-09-20 21:40:00,
2013-09-20 17:55:00,81.8,61.0,29.93,SW,225,2.0,-999.0,49,-99.99,,,0.00,weatherlink.com 1.10,2013-09-20 21:55:00,
2013-09-20 18:10:00,81.2,61.0,29.93,ENE,74,0.0,-999.0,50,-99.99,,,0.00,weatherlink.com 1.10,2013-09-20 22:10:00,
2013-09-20 18:26:00,80.0,60.0,29.92,SW,215,0.0,-999.0,51,-99.99,,,0.00,weatherlink.com 1.10,2013-09-20 22:26:00,
2013-09-20 18:41:00,78.7,60.0,29.92,SW,220,0.0,-999.0,53,-99.99,,,0.00,weatherlink.com 1.10,2013-09-20 22:41:00,
2013-09-20 18:56:00,77.1,60.0,29.92,South,178,0.0,-999.0,56,-99.99,,,0.00,weatherlink.com 1.10,2013-09-20 22:56:00,
2013-09-20 19:11:00,75.3,60.0,29.92,ENE,63,0.0,-999.0,59,-99.99,,,0.00,weatherlink.com 1.10,2013-09-20 23:11:00,
2013-09-20 19:26:00,73.0,59.0,29.93,ENE,63,0.0,-999.0,62,-99.99,,,0.00,weatherlink.com 1.10,2013-09-20 23:26:00,
2013-09-20 19:41:00,70.7,59.0,29.93,ENE,63,0.0,-999.0,66,-99.99,,,0.00,weatherlink.com 1.10,2013-09-20 23:41:00,
2013-09-20 20:11:00,67.3,58.0,29.92,ENE,63,0.0,-999.0,72,-99.99,,,0.00,weatherlink.com 1.10,2013-09-21 00:11:00,
2013-09-20 20:26:00,66.2,58.0,29.93,ENE,63,0.0,-999.0,75,-99.99,,,0.00,weatherlink.com 1.10,2013-09-21 00:26:00,
2013-09-20 20:41:00,65.7,58.0,29.92,ENE,63,2.0,-999.0,76,-99.99,,,0.00,weatherlink.com 1.10,2013-09-21 00:41:00,
2013-09-20 20:56:00,65.6,58.0,29.93,ENE,63,0.0,-999.0,77,-99.99,,,0.00,weatherlink.com 1.10,2013-09-21 00:56:00,
2013-09-20 21:11:00,65.3,58.0,29.92,ENE,63,0.0,-999.0,77,-99.99,,,0.00,weatherlink.com 1.10,2013-09-21 01:11:00,
2013-09-20 21:26:00,65.0,58.0,29.93,ENE,63,0.0,-999.0,78,-99.99,,,0.00,weatherlink.com 1.10,2013-09-21 01:26:00,
2013-09-20 21:41:00,64.9,58.0,29.94,ENE,63,0.0,-999.0,78,-99.99,,,0.00,weatherlink.com 1.10,2013-09-21 01:41:00,
2013-09-20 21:55:00,64.6,58.0,29.94,ENE,63,0.0,-999.0,79,-99.99,,,0.00,weatherlink.com 1.10,2013-09-21 01:55:00,
2013-09-20 22:10:00,64.1,57.0,29.94,ENE,63,0.0,-999.0,79,-99.99,,,0.00,weatherlink.com 1.10,2013-09-21 02:10:00,
2013-09-20 22:25:00,63.3,57.0,29.94,ENE,75,0.0,-999.0,80,-99.99,,,0.00,weatherlink.com 1.10,2013-09-21 02:25:00,
2013-09-20 22:40:00,62.6,57.0,29.94,ENE,75,0.0,-999.0,82,-99.99,,,0.00,weatherlink.com 1.10,2013-09-21 02:40:00,
2013-09-20 22:55:00,62.0,57.0,29.95,ENE,77,0.0,-999.0,83,-99.99,,,0.00,weatherlink.com 1.10,2013-09-21 02:55:00,
2013-09-20 23:10:00,61.3,56.0,29.95,ENE,77,0.0,-999.0,83,-99.99,,,0.00,weatherlink.com 1.10,2013-09-21 03:10:00,
2013-09-20 23:25:00,60.8,56.0,29.94,ENE,77,0.0,-999.0,84,-99.99,,,0.00,weatherlink.com 1.10,2013-09-21 03:25:00,
2013-09-20 23:40:00,60.2,55.0,29.94,ENE,77,0.0,-999.0,84,-99.99,,,0.00,weatherlink.com 1.10,2013-09-21 03:40:00,
2013-09-20 23:55:00,59.5,55.0,29.94,ENE,77,0.0,-999.0,85,-99.99,,,0.00,weatherlink.com 1.10,2013-09-21 03:55:00,